Content
SEND FEEDBACK

Daily
Averages
Monthly
Summary
United States of America

WHEATON, MINNESOTA


Home > North America > United States > Minnesota
Elevation: 1020 feet     Latitude: 45 47N     Longitude: 096 28W

WEATHER
 
SELECT A DAY
Number of Records: 459,249;   Date Range: 1/1/95 - 10/29/14
 
SHARE

PRINT THIS DATA

[ ← Previous Day ]
WEATHER ALMANAC - JANUARY 23, 2013
[ Next Day → ]
[ °C ]   °F
Weather ElementAverageHighLow
Temperature0.1 °F8.6 °F (12:35 am)-13 °F (11:15 pm)
Dewpoint-6.6 °F5 °F (6:15 am)-20.2 °F (9:35 pm)
Humidity73.8 %85 % (1:55 am)61 % (1:55 pm)
Barometer30.39 in30.66 in (10:55 pm)30.16 in (2:15 am)
Wind Speed13.2 mph24.2 mph (11:35 am)
Wind Gust34.5 mph (12:55 pm)
Weather ElementAverage
Visibility9.3 mi
Wind DirectionWNW (296.1 °)

Weather ElementTotal
Precipitation---
Heating Degree Days67.2 (Base 65)
Averaged from 69 records on January 23, 2013
WEATHER CONDITIONS BREAKOUT
WIND DIRECTION BREAKOUT
WEATHER BY HOUR - JANUARY 23, 2013
[ °C ]   °F
Local TimeTemperatureDewpointHumidityBarometerVisibilityWind DirectionWind SpeedGust SpeedPrecipitationEventsConditions
12:35 AM8.6 °F3.2 °F79 %30.18 in7.0 miSSE (160°)5.8 mphSnowLight Snow
12:55 AM8.6 °F3.2 °F79 %30.17 in10.0 miSSE (150°)5.8 mphSnowLight Snow
1:15 AM8.6 °F3.2 °F79 %30.18 in10.0 miSSE (160°)4.6 mphSnowLight Snow
1:35 AM8.6 °F3.2 °F79 %30.17 in10.0 miSSE (150°)4.6 mphSnowLight Snow
1:55 AM6.8 °F3.2 °F85 %30.17 in4.0 miSE (140°)4.6 mphSnowLight Snow
2:15 AM6.8 °F1.4 °F79 %30.16 in10.0 miSE (140°)4.6 mphSnowLight Snow
2:35 AM6.8 °F1.4 °F79 %30.16 in7.0 miSSE (150°)3.5 mphSnowLight Snow
2:55 AM6.8 °F3.2 °F85 %30.16 in7.0 miSouth (170°)4.6 mphSnowLight Snow
3:15 AM6.8 °F3.2 °F85 %30.16 in7.0 miSouth (170°)4.6 mphSnowLight Snow
3:35 AM6.8 °F3.2 °F85 %30.16 in7.0 miSouth (180°)3.5 mphSnowLight Snow
3:55 AM5.0 °F1.4 °F85 %30.16 in5.0 miSSW (200°)3.5 mphSnowLight Snow
4:15 AM5.0 °F1.4 °F85 %30.16 in7.0 miSSW (200°)5.8 mphSnowLight Snow
4:35 AM5.0 °F1.4 °F85 %30.16 in10.0 miSW (220°)4.6 mphSnowLight Snow
4:55 AM5.0 °F1.4 °F85 %30.16 in10.0 miSW (220°)5.8 mphClear
5:15 AM5.0 °F1.4 °F85 %30.17 in10.0 miWSW (250°)3.5 mphClear
5:35 AM5.0 °F1.4 °F85 %30.17 in10.0 miWest (270°)6.9 mphClear
5:55 AM6.8 °F3.2 °F85 %30.18 in10.0 miWest (280°)8.1 mphClear
6:15 AM8.6 °F5.0 °F85 %30.18 in10.0 miWNW (300°)11.5 mphClear
6:35 AM6.8 °F3.2 °F85 %30.19 in10.0 miNW (310°)10.4 mphClear
6:55 AM6.8 °F3.2 °F85 %30.20 in10.0 miNW (310°)13.8 mph17.3 mphClear
7:15 AM6.8 °F3.2 °F85 %30.22 in10.0 miNW (320°)13.8 mphClear
7:35 AM6.8 °F1.4 °F79 %30.23 in10.0 miNW (320°)11.5 mph18.4 mphClear
7:55 AM5.0 °F1.4 °F85 %30.24 in10.0 miNW (310°)12.7 mph18.4 mphClear
8:15 AM5.0 °F-0.4 °F78 %30.25 in10.0 miNW (320°)12.7 mph17.3 mphClear
8:35 AM3.2 °F-0.4 °F85 %30.26 in10.0 miNW (320°)15.0 mph18.4 mphClear
8:55 AM3.2 °F-2.2 °F78 %30.27 in10.0 miNW (310°)18.4 mph21.9 mphClear
9:15 AM3.2 °F-2.2 °F78 %30.29 in7.0 miNNW (330°)16.1 mph25.3 mphScattered Clouds
9:35 AM3.2 °F-2.2 °F78 %30.31 in10.0 miNW (320°)16.1 mph28.8 mphMostly Cloudy
9:55 AM3.2 °F-4.0 °F72 %30.33 in10.0 miNW (320°)17.3 mph24.2 mphScattered Clouds
10:15 AM3.2 °F-4.0 °F72 %30.34 in10.0 miNNW (330°)23.0 mph26.5 mphClear
10:35 AM3.2 °F-4.0 °F72 %30.35 in10.0 miNNW (330°)18.4 mph26.5 mphClear
10:55 AM3.2 °F-5.8 °F66 %30.37 in10.0 miNNW (330°)18.4 mph29.9 mphClear
11:15 AM3.2 °F-5.8 °F66 %30.39 in10.0 miNNW (330°)20.7 mph27.6 mphClear
11:35 AM1.4 °F-5.8 °F72 %30.40 in10.0 miNNW (340°)24.2 mph33.4 mphClear
11:55 AM1.4 °F-5.8 °F72 %30.40 in10.0 miNNW (330°)20.7 mph28.8 mphScattered Clouds
12:15 PM1.4 °F-5.8 °F72 %30.40 in7.0 miNW (320°)19.6 mph29.9 mphMostly Cloudy
12:35 PM1.4 °F-5.8 °F72 %30.40 in10.0 miNNW (330°)21.9 mph27.6 mphScattered Clouds
12:55 PM1.4 °F-7.6 °F66 %30.41 in10.0 miNNW (340°)23.0 mph34.5 mphClear
1:15 PM1.4 °F-7.6 °F66 %30.43 in7.0 miNNW (330°)18.4 mph28.8 mphScattered Clouds
1:35 PM1.4 °F-7.6 °F66 %30.43 in5.0 miNNW (340°)21.9 mph28.8 mphHaze
1:55 PM1.4 °F-9.4 °F61 %30.44 in10.0 miNNW (330°)23.0 mph27.6 mphScattered Clouds
2:15 PM1.4 °F-9.4 °F61 %30.45 in10.0 miNNW (330°)18.4 mph29.9 mphClear
2:35 PM-0.4 °F-9.4 °F66 %30.45 in10.0 miNNW (330°)18.4 mph31.1 mphClear
2:55 PM-0.4 °F-9.4 °F66 %30.46 in10.0 miNNW (330°)20.7 mph28.8 mphClear
3:15 PM-0.4 °F-9.4 °F66 %30.48 in10.0 miNNW (330°)21.9 mph33.4 mphClear
3:35 PM-2.2 °F-9.4 °F71 %30.49 in10.0 miNNW (330°)23.0 mph29.9 mphScattered Clouds
3:55 PM-2.2 °F-9.4 °F71 %30.51 in10.0 miNNW (340°)23.0 mph29.9 mphScattered Clouds
4:15 PM-2.2 °F-11.2 °F66 %30.53 in10.0 miNNW (340°)17.3 mph25.3 mphScattered Clouds
4:35 PM-4.0 °F-11.2 °F71 %30.54 in7.0 miNNW (340°)20.7 mph26.5 mphScattered Clouds
4:55 PM-5.8 °F-13.0 °F71 %30.55 in10.0 miNW (320°)16.1 mph25.3 mphScattered Clouds
5:15 PM-5.8 °F-13.0 °F71 %30.56 in10.0 miNNW (330°)13.8 mphClear
5:35 PM-5.8 °F-14.8 °F65 %30.56 in10.0 miNNW (330°)13.8 mph23.0 mphClear
5:55 PM-5.8 °F-14.8 °F65 %30.57 in10.0 miNNW (330°)17.3 mph23.0 mphClear
6:15 PM-7.6 °F-16.6 °F65 %30.57 in10.0 miNNW (340°)16.1 mphClear
6:35 PM-7.6 °F-16.6 °F65 %30.59 in10.0 miNNW (330°)16.1 mph23.0 mphClear
6:55 PM-7.6 °F-14.8 °F71 %30.58 in10.0 miNNW (340°)16.1 mph23.0 mphClear
7:15 PM-7.6 °F-16.6 °F65 %30.59 in10.0 miNNW (340°)16.1 mph21.9 mphClear
7:35 PM-7.6 °F-16.6 °F65 %30.59 in10.0 miNNW (340°)15.0 mph20.7 mphClear
7:55 PM-9.4 °F-16.6 °F71 %30.60 in10.0 miNNW (340°)10.4 mphClear
8:15 PM-9.4 °F-18.4 °F65 %30.60 in10.0 miNNW (340°)13.8 mph21.9 mphClear
8:35 PM-9.4 °F-18.4 °F65 %30.61 in10.0 miNorth (350°)10.4 mphClear
9:14 PM-11.2 °F-18.4 °F70 %30.62 in10.0 miNorth (350°)12.7 mphClear
9:35 PM-11.2 °F-20.2 °F64 %30.62 in10.0 miNorth (350°)12.7 mph18.4 mphClear
9:54 PM-11.2 °F-20.2 °F64 %30.64 in10.0 miNorth (350°)10.4 mphClear
10:15 PM-11.2 °F-20.2 °F64 %30.64 in10.0 miNorth (350°)10.4 mphClear
10:35 PM-11.2 °F-20.2 °F64 %30.65 in10.0 miNorth (350°)6.9 mphClear
10:55 PM-11.2 °F-20.2 °F64 %30.66 in10.0 miNorth (350°)8.1 mphClear
11:15 PM-13.0 °F-18.4 °F77 %30.65 in10.0 miNNW (340°)6.9 mphClear
11:55 PM-13.0 °F-18.4 °F77 %30.66 in10.0 miCalm (310°)Clear
Hourly data recorded from KETH, located miles away from Wheaton, Minnesota







STORIES FROM OUR PARTNERS